Time,TemperatureF,DewpointF,PressureIn,WindDirection,WindDirectionDegrees,WindSpeedMPH,WindSpeedGustMPH,Humidity,HourlyPrecipIn,Conditions,Clouds,dailyrainin,SoftwareType,DateUTC
2013-07-17 00:01:00,78.0,75.0,-100.00,South,175,1.0,3.0,91,0.00,,,-99.99,,2013-07-17 04:01:00,
2013-07-17 00:53:00,76.0,74.0,-100.00,South,180,1.0,3.0,94,0.00,,,-99.99,,2013-07-17 04:53:00,
2013-07-17 01:11:00,77.0,74.0,-100.00,South,170,2.0,3.0,92,0.00,,,-99.99,,2013-07-17 05:11:00,
2013-07-17 01:52:00,77.0,75.0,-100.00,NW,305,1.0,2.0,93,0.00,,,-99.99,,2013-07-17 05:52:00,
2013-07-17 02:11:00,77.0,74.0,-100.00,SW,215,1.0,3.0,92,0.00,,,-99.99,,2013-07-17 06:11:00,
2013-07-17 02:22:00,77.0,74.0,-100.00,WSW,240,1.0,3.0,91,0.00,,,-99.99,,2013-07-17 06:22:00,
2013-07-17 02:32:00,77.0,74.0,-100.00,WNW,285,1.0,2.0,90,0.00,,,-99.99,,2013-07-17 06:32:00,
2013-07-17 02:43:00,77.0,74.0,-100.00,SSW,195,1.0,2.0,91,0.00,,,-99.99,,2013-07-17 06:43:00,
2013-07-17 02:52:00,76.0,74.0,-100.00,SSW,200,2.0,3.0,93,0.00,,,-99.99,,2013-07-17 06:52:00,
2013-07-17 03:11:00,76.0,74.0,-100.00,SW,225,2.0,4.0,93,0.00,,,-99.99,,2013-07-17 07:11:00,
2013-07-17 03:32:00,76.0,74.0,-100.00,WSW,245,0.0,3.0,94,0.00,,,-99.99,,2013-07-17 07:32:00,
2013-07-17 03:42:00,76.0,74.0,-100.00,WSW,240,1.0,3.0,92,0.00,,,-99.99,,2013-07-17 07:42:00,
2013-07-17 04:22:00,77.0,74.0,-100.00,ENE,65,1.0,2.0,90,0.00,,,-99.99,,2013-07-17 08:22:00,
2013-07-17 06:52:00,75.0,73.0,-100.00,West,275,3.0,6.0,92,0.00,,,-99.99,,2013-07-17 10:52:00,
2013-07-17 07:02:00,75.0,73.0,-100.00,WNW,285,2.0,5.0,92,0.00,,,-99.99,,2013-07-17 11:02:00,
2013-07-17 07:11:00,74.0,73.0,-100.00,WSW,240,1.0,3.0,95,0.00,,,-99.99,,2013-07-17 11:11:00,
2013-07-17 07:22:00,74.0,73.0,-100.00,South,180,2.0,4.0,96,0.00,,,-99.99,,2013-07-17 11:22:00,
2013-07-17 07:32:00,74.0,73.0,-100.00,South,190,1.0,2.0,94,0.00,,,-99.99,,2013-07-17 11:32:00,
2013-07-17 07:52:00,76.0,73.0,-100.00,West,260,2.0,4.0,90,0.00,,,-99.99,,2013-07-17 11:52:00,
2013-07-17 08:01:00,77.0,73.0,-100.00,WNW,285,2.0,5.0,88,0.00,,,-99.99,,2013-07-17 12:01:00,
2013-07-17 08:12:00,77.0,74.0,-100.00,NW,315,1.0,4.0,90,0.00,,,-99.99,,2013-07-17 12:12:00,
2013-07-17 08:22:00,78.0,73.0,-100.00,West,270,2.0,5.0,85,0.00,,,-99.99,,2013-07-17 12:22:00,
2013-07-17 08:32:00,78.0,73.0,-100.00,WNW,300,4.0,6.0,84,0.00,,,-99.99,,2013-07-17 12:32:00,
2013-07-17 08:53:00,79.0,72.0,-100.00,WNW,285,4.0,7.0,79,0.00,,,-99.99,,2013-07-17 12:53:00,
2013-07-17 09:12:00,81.0,73.0,-100.00,WNW,290,3.0,8.0,76,0.00,,,-99.99,,2013-07-17 13:12:00,
2013-07-17 09:22:00,81.0,73.0,-100.00,WNW,295,4.0,6.0,77,0.00,,,-99.99,,2013-07-17 13:22:00,
2013-07-17 09:32:00,82.0,74.0,-100.00,WNW,295,4.0,7.0,76,0.00,,,-99.99,,2013-07-17 13:32:00,
2013-07-17 09:52:00,83.0,73.0,-100.00,WNW,285,3.0,7.0,73,0.00,,,-99.99,,2013-07-17 13:52:00,
2013-07-17 10:02:00,83.0,73.0,-100.00,WNW,290,4.0,9.0,69,0.00,,,-99.99,,2013-07-17 14:02:00,
2013-07-17 10:52:00,85.0,73.0,-100.00,West,280,6.0,8.0,67,0.00,,,-99.99,,2013-07-17 14:52:00,
2013-07-17 11:02:00,85.0,73.0,-100.00,WNW,295,6.0,10.0,66,0.00,,,-99.99,,2013-07-17 15:02:00,
2013-07-17 11:12:00,86.0,73.0,-100.00,WNW,300,3.0,7.0,65,0.00,,,-99.99,,2013-07-17 15:12:00,
2013-07-17 11:22:00,86.0,74.0,-100.00,WNW,295,4.0,9.0,66,0.00,,,-99.99,,2013-07-17 15:22:00,
2013-07-17 11:32:00,87.0,73.0,-100.00,West,280,6.0,9.0,64,0.00,,,-99.99,,2013-07-17 15:32:00,
2013-07-17 11:42:00,86.0,74.0,-100.00,WNW,290,7.0,9.0,67,0.00,,,-99.99,,2013-07-17 15:42:00,
2013-07-17 11:52:00,86.0,73.0,-100.00,West,270,4.0,9.0,65,0.00,,,-99.99,,2013-07-17 15:52:00,
2013-07-17 12:11:00,87.0,73.0,-100.00,WNW,295,2.0,10.0,63,0.00,,,-99.99,,2013-07-17 16:11:00,
2013-07-17 12:22:00,87.0,73.0,-100.00,NW,310,3.0,9.0,61,0.00,,,-99.99,,2013-07-17 16:22:00,
2013-07-17 12:33:00,87.0,73.0,-100.00,WNW,285,6.0,11.0,64,0.00,,,-99.99,,2013-07-17 16:33:00,
2013-07-17 12:52:00,87.0,74.0,-100.00,WNW,285,6.0,9.0,65,0.00,,,-99.99,,2013-07-17 16:52:00,
2013-07-17 13:11:00,89.0,73.0,-100.00,WNW,300,4.0,9.0,61,0.00,,,-99.99,,2013-07-17 17:11:00,
2013-07-17 13:22:00,88.0,73.0,-100.00,WNW,300,5.0,9.0,61,0.00,,,-99.99,,2013-07-17 17:22:00,
2013-07-17 13:32:00,88.0,73.0,-100.00,WNW,285,7.0,10.0,62,0.00,,,-99.99,,2013-07-17 17:32:00,
2013-07-17 13:43:00,90.0,74.0,-100.00,NW,325,4.0,9.0,59,0.00,,,-99.99,,2013-07-17 17:43:00,
2013-07-17 13:52:00,90.0,74.0,-100.00,NW,325,4.0,9.0,59,0.00,,,-99.99,,2013-07-17 17:52:00,
2013-07-17 14:22:00,89.0,73.0,-100.00,NW,305,5.0,7.0,59,0.00,,,-99.99,,2013-07-17 18:22:00,
2013-07-17 14:32:00,89.0,74.0,-100.00,WNW,295,6.0,10.0,61,0.00,,,-99.99,,2013-07-17 18:32:00,
2013-07-17 14:52:00,90.0,74.0,-100.00,West,260,6.0,11.0,58,0.00,,,-99.99,,2013-07-17 18:52:00,
2013-07-17 15:01:00,90.0,74.0,-100.00,West,260,6.0,11.0,58,0.00,,,-99.99,,2013-07-17 19:01:00,
2013-07-17 15:11:00,89.0,72.0,-100.00,WNW,295,6.0,10.0,56,0.00,,,-99.99,,2013-07-17 19:11:00,
2013-07-17 15:22:00,90.0,71.0,-100.00,West,280,7.0,11.0,54,0.00,,,-99.99,,2013-07-17 19:22:00,
2013-07-17 15:32:00,90.0,72.0,-100.00,WSW,255,4.0,13.0,55,0.00,,,-99.99,,2013-07-17 19:32:00,
2013-07-17 15:53:00,91.0,73.0,-100.00,WSW,245,7.0,9.0,55,0.00,,,-99.99,,2013-07-17 19:53:00,
2013-07-17 16:02:00,89.0,72.0,-100.00,West,265,4.0,9.0,58,0.00,,,-99.99,,2013-07-17 20:02:00,
2013-07-17 16:52:00,90.0,73.0,-100.00,West,260,7.0,11.0,57,0.00,,,-99.99,,2013-07-17 20:52:00,
2013-07-17 17:02:00,91.0,73.0,-100.00,WSW,245,10.0,14.0,55,0.00,,,-99.99,,2013-07-17 21:02:00,
2013-07-17 17:52:00,91.0,72.0,-100.00,WSW,245,6.0,13.0,55,0.00,,,-99.99,,2013-07-17 21:52:00,
2013-07-17 18:11:00,91.0,72.0,-100.00,West,260,9.0,12.0,54,0.00,,,-99.99,,2013-07-17 22:11:00,
2013-07-17 18:22:00,90.0,74.0,-100.00,West,265,7.0,12.0,58,0.00,,,-99.99,,2013-07-17 22:22:00,
2013-07-17 18:32:00,90.0,74.0,-100.00,West,265,7.0,12.0,58,0.00,,,-99.99,,2013-07-17 22:32:00,
2013-07-17 18:53:00,89.0,72.0,-100.00,West,280,9.0,12.0,56,0.00,,,-99.99,,2013-07-17 22:53:00,
2013-07-17 19:22:00,89.0,71.0,-100.00,West,275,7.0,12.0,55,0.00,,,-99.99,,2013-07-17 23:22:00,
2013-07-17 19:32:00,89.0,72.0,-100.00,West,275,7.0,10.0,57,0.00,,,-99.99,,2013-07-17 23:32:00,
2013-07-17 19:43:00,89.0,73.0,-100.00,West,265,6.0,9.0,59,0.00,,,-99.99,,2013-07-17 23:43:00,
2013-07-17 19:52:00,89.0,72.0,-100.00,West,260,4.0,9.0,58,0.00,,,-99.99,,2013-07-17 23:52:00,
2013-07-17 20:22:00,88.0,73.0,-100.00,West,280,4.0,7.0,60,0.00,,,-99.99,,2013-07-18 00:22:00,
2013-07-17 20:52:00,86.0,73.0,-100.00,West,265,5.0,7.0,65,0.00,,,-99.99,,2013-07-18 00:52:00,
2013-07-17 21:01:00,86.0,73.0,-100.00,West,270,4.0,7.0,66,0.00,,,-99.99,,2013-07-18 01:01:00,
2013-07-17 21:11:00,85.0,73.0,-100.00,West,270,6.0,9.0,67,0.00,,,-99.99,,2013-07-18 01:11:00,
2013-07-17 21:32:00,85.0,73.0,-100.00,West,275,5.0,7.0,67,0.00,,,-99.99,,2013-07-18 01:32:00,
2013-07-17 21:53:00,84.0,73.0,-100.00,West,275,4.0,6.0,70,0.00,,,-99.99,,2013-07-18 01:53:00,
2013-07-17 22:11:00,84.0,73.0,-100.00,West,260,4.0,6.0,69,0.00,,,-99.99,,2013-07-18 02:11:00,
2013-07-17 22:22:00,83.0,73.0,-100.00,West,260,4.0,6.0,71,0.00,,,-99.99,,2013-07-18 02:22:00,
2013-07-17 22:32:00,83.0,73.0,-100.00,West,260,4.0,8.0,72,0.00,,,-99.99,,2013-07-18 02:32:00,
2013-07-17 22:43:00,83.0,73.0,-100.00,West,280,4.0,6.0,71,0.00,,,-99.99,,2013-07-18 02:43:00,
2013-07-17 22:52:00,82.0,73.0,-100.00,WSW,250,2.0,6.0,72,0.00,,,-99.99,,2013-07-18 02:52:00,
2013-07-17 23:01:00,83.0,73.0,-100.00,West,260,2.0,6.0,72,0.00,,,-99.99,,2013-07-18 03:01:00,
2013-07-17 23:52:00,81.0,73.0,-100.00,West,260,3.0,6.0,75,0.00,,,-99.99,,2013-07-18 03:52:00,